Blattenbach Aussen Messungen

Zurück zum Überblick

Zeitpunkt Temperatur Temperatur Kabelsensor Luftfeuchte
22.01.2019 21:22:15 -3,4 C 2,2 C 75,0%
22.01.2019 21:15:14 -3,4 C 2,2 C 74,0%
22.01.2019 21:08:13 -3,4 C 2,3 C 74,0%
22.01.2019 21:01:14 -3,3 C 2,3 C 74,0%
22.01.2019 20:54:11 -3,1 C 2,3 C 74,0%
22.01.2019 20:47:11 -3,0 C 2,3 C 75,0%
22.01.2019 20:40:11 -2,8 C 2,3 C 75,0%
22.01.2019 20:33:12 -2,3 C 2,4 C 74,0%
22.01.2019 20:26:12 -2,0 C 2,4 C 74,0%
22.01.2019 20:19:14 -1,8 C 2,3 C 74,0%
22.01.2019 20:12:10 -1,7 C 2,3 C 74,0%
22.01.2019 20:05:15 -1,6 C 2,3 C 74,0%
22.01.2019 19:58:10 -1,5 C 2,3 C 74,0%
22.01.2019 19:50:57 -1,4 C 2,3 C 74,0%
22.01.2019 19:43:59 -1,4 C 2,3 C 74,0%
22.01.2019 19:36:59 -1,4 C 2,3 C 74,0%
22.01.2019 19:29:59 -1,4 C 2,3 C 75,0%
22.01.2019 19:22:58 -1,4 C 2,4 C 74,0%
22.01.2019 19:15:59 -1,3 C 2,4 C 74,0%
22.01.2019 19:09:00 -1,4 C 2,4 C 75,0%
22.01.2019 19:01:55 -1,4 C 2,4 C 74,0%
22.01.2019 18:54:59 -1,4 C 2,3 C 74,0%
22.01.2019 18:47:58 -1,3 C 2,4 C 74,0%
22.01.2019 18:40:56 -1,3 C 2,3 C 74,0%
22.01.2019 18:33:56 -1,4 C 2,4 C 74,0%
22.01.2019 18:26:55 -1,5 C 2,4 C 74,0%
22.01.2019 18:19:55 -1,5 C 2,4 C 74,0%
22.01.2019 18:12:56 -1,6 C 2,4 C 74,0%
22.01.2019 18:05:56 -1,7 C 2,4 C 74,0%
22.01.2019 17:58:59 -1,8 C 2,4 C 74,0%
22.01.2019 17:51:58 -1,8 C 2,4 C 74,0%
22.01.2019 17:44:55 -1,9 C 2,4 C 73,0%
22.01.2019 17:37:59 -1,8 C 2,4 C 73,0%
22.01.2019 17:30:58 -1,9 C 2,5 C 73,0%
22.01.2019 17:23:56 -1,8 C 2,5 C 72,0%
22.01.2019 17:16:58 -1,6 C 2,5 C 71,0%
22.01.2019 17:10:00 -1,4 C 2,5 C 71,0%
22.01.2019 17:02:59 -1,2 C 2,5 C 70,0%
22.01.2019 16:55:59 -1,0 C 2,5 C 70,0%
22.01.2019 16:48:56 -0,7 C 2,5 C 69,0%
22.01.2019 16:41:56 -0,3 C 2,5 C 69,0%
22.01.2019 16:34:57 0,0 C 2,6 C 69,0%
22.01.2019 16:27:57 0,4 C 2,6 C 69,0%
22.01.2019 16:20:58 0,6 C 2,6 C 68,0%
22.01.2019 16:13:57 0,8 C 2,6 C 68,0%
22.01.2019 16:06:58 1,0 C 2,6 C 68,0%
22.01.2019 15:59:57 1,1 C 2,6 C 67,0%
22.01.2019 15:52:55 1,3 C 2,6 C 67,0%
22.01.2019 15:45:57 1,4 C 2,6 C 67,0%
22.01.2019 15:38:56 1,6 C 2,6 C 67,0%